New Bedford, MA

9:03 AM EDT on September 25, 2016 (GMT -0400)
New Bedford Regional

Weather History for KEWB - November, 2012

Change the Weather History Date:

Tuesday, November 13, 2012

  Actual Average Record
Temperature  
Mean Temperature 53 °F -  
Max Temperature 64 °F 51 °F 66 °F (1964)
Min Temperature 41 °F 36 °F 19 °F (2001)
Degree Days  
Heating Degree Days 12    
Growing Degree Days 3 (Base 50)    
Moisture  
Dew Point 51 °F    
Average Humidity 88    
Maximum Humidity 94    
Minimum Humidity 66    
Precipitation  
Precipitation 0.29 in - - ()
Sea Level Pressure  
Sea Level Pressure 30.24 in    
Wind  
Wind Speed 12 mph (WSW)    
Max Wind Speed 23 mph    
Max Gust Speed 33 mph    
Visibility 8 miles    
Events Rain    
Averages and records for this station are not official NWS values.
T = Trace of Precipitation, MM = Missing Value Source: NWS Daily Summary

Daily Weather History Graph

Daily Weather History Graph

Search for Another Location

Airport or City:

Trip Planner

Search our weather history database for the weather conditions in past years. The results will help you decide how hot, cold, wet, or windy it might be!

Date:

Astronomy

Nov. 13, 2012 Rise Set
Actual Time 6:31 AM EST 4:24 PM EST
Civil Twilight 6:01 AM EST 4:54 PM EST
Nautical Twilight 5:27 AM EST 5:28 PM EST
Astronomical Twilight 4:55 AM EST 6:00 PM EST
Moon 6:05 AM EST (11/13) 4:14 PM EST (11/13)
Length of Visible Light 10h 53m
Length of Day
9h 53m
Waning Crescent, 0% of the Moon is Illuminated
Nov 13
Waning Crescent
Nov 13
New
Nov 20
First Quarter
Nov 28
Full
Dec 6
Last Quarter

Hourly Weather History & Observations

Time (EST) Temp. Windchill Dew Point Humidity Pressure Visibility Wind Dir Wind Speed Gust Speed Precip Events Conditions
12:19 AM 62.6 °F - 60.8 °F 94% 30.25 in 10.0 mi South 12.7 mph - N/A   Mostly Cloudy
12:33 AM 62.6 °F - 60.8 °F 94% 30.25 in 10.0 mi South 11.5 mph 21.9 mph N/A   Overcast
12:53 AM 63.0 °F - 61.0 °F 93% 30.24 in 9.0 mi South 16.1 mph 19.6 mph N/A   Mostly Cloudy
1:34 AM 64.4 °F - 60.8 °F 88% 30.23 in 10.0 mi South 11.5 mph 24.2 mph N/A   Overcast
1:53 AM 64.0 °F - 60.1 °F 87% 30.22 in 10.0 mi South 16.1 mph 24.2 mph N/A   Overcast
2:13 AM 62.6 °F - 60.8 °F 94% 30.22 in 9.0 mi South 16.1 mph 26.5 mph N/A   Overcast
2:21 AM 62.6 °F - 60.8 °F 94% 30.22 in 9.0 mi South 15.0 mph 23.0 mph N/A   Overcast
2:33 AM 62.6 °F - 60.8 °F 94% 30.21 in 8.0 mi South 13.8 mph 27.6 mph N/A   Overcast
2:53 AM 63.0 °F - 60.1 °F 90% 30.20 in 8.0 mi South 15.0 mph 25.3 mph N/A   Overcast
3:20 AM 62.6 °F - 59.0 °F 88% 30.19 in 10.0 mi South 15.0 mph 24.2 mph N/A   Overcast
3:53 AM 63.0 °F - 59.0 °F 87% 30.18 in 10.0 mi SSW 17.3 mph 23.0 mph N/A   Overcast
4:01 AM 62.6 °F - 59.0 °F 88% 30.18 in 10.0 mi South 13.8 mph 23.0 mph N/A   Overcast
4:10 AM 62.6 °F - 60.8 °F 94% 30.18 in 10.0 mi SSW 13.8 mph - N/A   Overcast
4:53 AM 64.0 °F - 60.1 °F 87% 30.17 in 10.0 mi SSW 17.3 mph 24.2 mph N/A   Overcast
5:11 AM 64.4 °F - 60.8 °F 88% 30.17 in 10.0 mi SSW 23.0 mph 31.1 mph N/A   Overcast
5:53 AM 64.0 °F - 59.0 °F 84% 30.17 in 10.0 mi South 20.7 mph 33.4 mph N/A   Overcast
6:15 AM 62.6 °F - 59.0 °F 88% 30.17 in 10.0 mi SSW 18.4 mph 27.6 mph 0.00 in   Overcast
6:38 AM 62.6 °F - 59.0 °F 88% 30.17 in 9.0 mi South 16.1 mph - 0.00 in   Mostly Cloudy
6:53 AM 63.0 °F - 59.0 °F 87% 30.17 in 9.0 mi South 16.1 mph 25.3 mph 0.00 in   Mostly Cloudy
7:22 AM 62.6 °F - 59.0 °F 88% 30.17 in 9.0 mi South 18.4 mph 29.9 mph N/A   Overcast
7:53 AM 63.0 °F - 60.1 °F 90% 30.17 in 8.0 mi South 17.3 mph - N/A   Overcast
8:53 AM 64.0 °F - 61.0 °F 90% 30.17 in 9.0 mi South 12.7 mph 19.6 mph N/A   Overcast
9:35 AM 62.6 °F - 59.0 °F 88% 30.19 in 1.8 mi WNW 17.3 mph 25.3 mph 0.09 in Rain Rain
9:40 AM 57.2 °F - 55.4 °F 94% 30.19 in 0.8 mi NNW 8.1 mph 25.3 mph 0.17 in Rain Heavy Rain
9:46 AM 55.4 °F - 51.8 °F 88% 30.21 in 1.2 mi NW 10.4 mph 24.2 mph 0.19 in Rain Rain
9:48 AM 53.6 °F - 51.8 °F 94% 30.21 in 3.0 mi NW 9.2 mph 24.2 mph 0.19 in Rain Light Rain
9:53 AM 53.1 °F - 51.1 °F 93% 30.21 in 3.0 mi Variable 5.8 mph 16.1 mph 0.19 in Rain Light Rain
10:53 AM 52.0 °F - 48.0 °F 86% 30.23 in 10.0 mi NW 5.8 mph - 0.00 in Rain Light Rain
11:53 AM 51.1 °F - 48.0 °F 89% 30.22 in 10.0 mi Variable 3.5 mph - 0.01 in   Overcast
12:00 PM 51.8 °F - 46.4 °F 82% 30.22 in 10.0 mi North 3.5 mph - N/A   Overcast
12:53 PM 51.1 °F - 45.0 °F 80% 30.22 in 10.0 mi NW 3.5 mph - 0.00 in   Overcast
1:53 PM 51.1 °F - 44.1 °F 77% 30.22 in 10.0 mi NW 6.9 mph - 0.00 in   Mostly Cloudy
2:53 PM 48.0 °F - 44.1 °F 86% 30.25 in 6.0 mi NW 4.6 mph - 0.01 in Rain Light Rain
3:50 PM 46.4 °F 43.5 °F 44.6 °F 93% 30.26 in 3.0 mi WNW 5.8 mph - 0.04 in Rain Light Rain
3:53 PM 46.0 °F 43.9 °F 44.1 °F 93% 30.26 in 3.0 mi NW 4.6 mph - 0.04 in Rain Light Rain
4:43 PM 46.4 °F 44.3 °F 42.8 °F 87% 30.28 in 10.0 mi NNW 4.6 mph - 0.00 in   Overcast
4:53 PM 46.0 °F 43.1 °F 43.0 °F 89% 30.28 in 10.0 mi NNW 5.8 mph - 0.00 in   Overcast
5:39 PM 44.6 °F 42.2 °F 42.8 °F 93% 30.30 in 10.0 mi NNW 4.6 mph - 0.02 in   Overcast
5:53 PM 44.1 °F 40.8 °F 41.0 °F 89% 30.31 in 10.0 mi NNW 5.8 mph - 0.02 in Rain Light Rain
6:34 PM 44.6 °F 41.4 °F 41.0 °F 87% 30.33 in 10.0 mi NNW 5.8 mph - 0.00 in   Overcast
6:53 PM 43.0 °F 41.3 °F 41.0 °F 93% 30.33 in 10.0 mi Variable 3.5 mph - 0.00 in Rain Light Rain
7:53 PM 43.0 °F 41.3 °F 41.0 °F 93% 30.34 in 10.0 mi Variable 3.5 mph - 0.02 in   Overcast
8:29 PM 42.8 °F 39.3 °F 39.2 °F 87% 30.35 in 10.0 mi North 5.8 mph - N/A   Overcast
8:53 PM 43.0 °F 39.5 °F 39.0 °F 86% 30.35 in 10.0 mi NNW 5.8 mph - N/A   Overcast
9:53 PM 43.0 °F 39.5 °F 37.0 °F 80% 30.37 in 10.0 mi North 5.8 mph - N/A   Overcast
10:53 PM 42.1 °F 37.7 °F 33.1 °F 70% 30.38 in 10.0 mi North 6.9 mph - N/A   Overcast
11:32 PM 42.8 °F 40.1 °F 32.0 °F 66% 30.39 in 10.0 mi North 4.6 mph - N/A   Overcast
11:53 PM 41.0 °F 38.0 °F 33.1 °F 73% 30.39 in 10.0 mi North 4.6 mph - 0.00 in Rain Light Rain